This is the latest recevied weather packets stored in our database for station/object W2OBX. If no packets are shown the sender has not sent any weather packets the latest 10 day(s).
| Time | Temp. | Humidity | Pressure | Rain* | Wind** | Luminosity | Snow |
|---|---|---|---|---|---|---|---|
| 1777836148 | 18.33° C | 39% | 1019.5 hPa | 0 mm | - | 573 W/m² | - |
| 1777835846 | 18.89° C | 38% | 1019.5 hPa | 0 mm | - | 642 W/m² | - |
| 1777835543 | 18.89° C | 39% | 1019.6 hPa | 0 mm | - | 738 W/m² | - |
| 1777835240 | 18.89° C | 40% | 1019.8 hPa | 0 mm | - | 743 W/m² | - |
| 1777834936 | 18.33° C | 39% | 1019.8 hPa | 0 mm | - | 750 W/m² | - |
| 1777834634 | 17.78° C | 43% | 1019.8 hPa | 0 mm | - | 754 W/m² | - |
| 1777834329 | 16.67° C | 42% | 1019.9 hPa | 0 mm | - | 757 W/m² | - |
| 1777834024 | 17.78° C | 43% | 1020 hPa | 0 mm | - | 762 W/m² | - |
| 1777833720 | 17.22° C | 41% | 1020 hPa | 0 mm | - | 766 W/m² | - |
| 1777833416 | 17.22° C | 39% | 1020 hPa | 0 mm | - | 774 W/m² | - |
| 1777833114 | 17.22° C | 37% | 1020.4 hPa | 0 mm | - | 775 W/m² | - |
| 1777832812 | 17.22° C | 38% | 1020.2 hPa | 0 mm | - | 779 W/m² | - |
| 1777832510 | 16.67° C | 39% | 1020.2 hPa | 0 mm | - | 784 W/m² | - |
| 1777832207 | 17.22° C | 39% | 1020.3 hPa | 0 mm | - | 784 W/m² | - |
| 1777831903 | 17.78° C | 39% | 1020.3 hPa | 0 mm | - | 769 W/m² | - |
| 1777831600 | 17.78° C | 37% | 1020.4 hPa | 0 mm | - | 785 W/m² | - |
| 1777831298 | 16.67° C | 45% | 1020.5 hPa | 0 mm | - | 784 W/m² | - |
| 1777830995 | 16.11° C | 40% | 1020.4 hPa | 0 mm | - | 784 W/m² | - |
| 1777830692 | 16.11° C | 43% | 1020.7 hPa | 0 mm | - | 784 W/m² | - |
| 1777830389 | 17.22° C | 41% | 1020.6 hPa | 0 mm | - | 785 W/m² | - |
| 1777830086 | 16.11° C | 40% | 1020.6 hPa | 0 mm | - | 784 W/m² | - |
| 1777829781 | 16.67° C | 47% | 1020.8 hPa | 0 mm | - | 782 W/m² | - |
| 1777829477 | 16.11° C | 39% | 1020.8 hPa | 0 mm | - | 781 W/m² | - |
| 1777829175 | 16.11° C | 46% | 1020.9 hPa | 0 mm | - | 780 W/m² | - |
| 1777828872 | 15.56° C | 43% | 1021.1 hPa | 0 mm | - | 774 W/m² | - |
* Rain latest hour (hover to see other rain measurements)
** Current wind speed in m/s (hover to see current wind gust speed)